{"data":{"norad_id":55405,"epoch":"2026-05-24T23:46:46.801344Z","epoch_age_seconds":79777,"freshness":"FRESH","line1":"1 55405U 23014Q   26144.99081946  .00000102  00000+0  16328-4 0  9998","line2":"2 55405  69.9994 232.1086 0003660 269.1454  90.9285 14.98330124183487","mean_motion":14.98330124,"eccentricity":0.000366,"inclination_deg":69.9994,"raan_deg":232.1086,"arg_perigee_deg":269.1454,"mean_anomaly_deg":90.9285,"bstar":1.6328e-5,"rev_number":18348,"period_min":96.106991171994,"perigee_km":569.51173702693,"apogee_km":574.59927794241,"semimajor_km":6950.1925074847,"source":"CELESTRAK","updated_at":"2026-05-25T13:38:17.795770Z"}}